Previsão horária em Abashevo

Hoje, 17 Maio, Segunda-feira

Tempo Temperatura Precipitação Vento Pressão Humidade
00:00 +21°C° 0 mm 3 m/s 759 mmHg 48%
01:00 +21°C° 0 mm 3 m/s 759 mmHg 49%
02:00 +20°C° 0 mm 3 m/s 759 mmHg 51%
03:00 +20°C° 0 mm 3 m/s 759 mmHg 53%
04:00 +21°C° 0 mm 3 m/s 759 mmHg 54%
05:00 +21°C° 0 mm 3 m/s 759 mmHg 55%
06:00 +23°C° 0 mm 2 m/s 759 mmHg 56%
07:00 +25°C° 0 mm 2 m/s 759 mmHg 49%
08:00 +27°C° 0 mm 3 m/s 759 mmHg 43%
09:00 +29°C° 0 mm 2 m/s 759 mmHg 36%
10:00 +30°C° 0 mm 3 m/s 759 mmHg 33%
11:00 +33°C° 0 mm 3 m/s 759 mmHg 29%
12:00 +34°C° 0 mm 4 m/s 759 mmHg 26%
13:00 +34°C° 0 mm 4 m/s 759 mmHg 24%
14:00 +34°C° 0 mm 4 m/s 759 mmHg 22%
15:00 +34°C° 0 mm 4 m/s 759 mmHg 20%
16:00 +33°C° 0 mm 3 m/s 759 mmHg 25%
17:00 +31°C° 0 mm 3 m/s 758 mmHg 31%
18:00 +29°C° 0 mm 3 m/s 758 mmHg 37%
19:00 +27°C° 0 mm 2 m/s 758 mmHg 38%
20:00 +26°C° 0 mm 2 m/s 759 mmHg 39%
21:00 +24°C° 0 mm 2 m/s 759 mmHg 40%
22:00 +23°C° 0 mm 2 m/s 759 mmHg 40%
23:00 +23°C° 0 mm 2 m/s 759 mmHg 39%

Amanhã, 18 Maio, Terça-feira

Tempo Temperatura Precipitação Vento Pressão Humidade
00:00 +21°C° 0 mm 2 m/s 759 mmHg 39%
01:00 +20°C° 0 mm 2 m/s 759 mmHg 39%
02:00 +20°C° 0 mm 2 m/s 759 mmHg 40%
03:00 +19°C° 0 mm 2 m/s 759 mmHg 40%
04:00 +20°C° 0 mm 2 m/s 759 mmHg 42%
05:00 +20°C° 0 mm 2 m/s 759 mmHg 45%
06:00 +21°C° 0 mm 2 m/s 759 mmHg 47%
07:00 +24°C° 0 mm 3 m/s 759 mmHg 42%
08:00 +27°C° 0 mm 3 m/s 759 mmHg 37%
09:00 +29°C° 0 mm 4 m/s 759 mmHg 31%
10:00 +30°C° 0 mm 4 m/s 758 mmHg 29%
11:00 +32°C° 0 mm 4 m/s 758 mmHg 27%
12:00 +34°C° 0 mm 4 m/s 758 mmHg 24%
13:00 +34°C° 0 mm 4 m/s 758 mmHg 23%
14:00 +34°C° 0 mm 3 m/s 758 mmHg 21%
15:00 +35°C° 0 mm 3 m/s 757 mmHg 20%
16:00 +34°C° 0 mm 3 m/s 757 mmHg 24%
17:00 +32°C° 0 mm 2 m/s 757 mmHg 29%
18:00 +31°C° 0 mm 2 m/s 757 mmHg 33%
19:00 +28°C° 0 mm 2 m/s 757 mmHg 36%
20:00 +26°C° 0 mm 3 m/s 757 mmHg 39%
21:00 +24°C° 0 mm 3 m/s 757 mmHg 42%
22:00 +22°C° 0 mm 3 m/s 757 mmHg 41%
23:00 +22°C° 0 mm 3 m/s 757 mmHg 41%

Depois de amanhã, 19 Maio, Quarta-feira

Tempo Temperatura Precipitação Vento Pressão Humidade
00:00 +21°C° 0 mm 3 m/s 757 mmHg 41%
01:00 +20°C° 0 mm 3 m/s 757 mmHg 47%
02:00 +19°C° 0 mm 4 m/s 757 mmHg 52%
03:00 +19°C° 0 mm 4 m/s 757 mmHg 58%
04:00 +19°C° 0 mm 4 m/s 757 mmHg 63%
05:00 +20°C° 0 mm 4 m/s 757 mmHg 67%
06:00 +21°C° 0 mm 5 m/s 757 mmHg 72%
07:00 +23°C° 0 mm 5 m/s 757 mmHg 64%
08:00 +26°C° 0 mm 5 m/s 757 mmHg 56%
09:00 +28°C° 0 mm 6 m/s 757 mmHg 48%
10:00 +29°C° 0 mm 6 m/s 757 mmHg 44%
11:00 +30°C° 0 mm 6 m/s 757 mmHg 40%
12:00 +32°C° 0 mm 6 m/s 757 mmHg 36%
13:00 +32°C° 0 mm 6 m/s 757 mmHg 35%
14:00 +32°C° 0 mm 7 m/s 757 mmHg 34%
15:00 +32°C° 0 mm 7 m/s 756 mmHg 34%
16:00 +30°C° 0 mm 7 m/s 756 mmHg 37%
17:00 +29°C° 0 mm 6 m/s 756 mmHg 40%
18:00 +28°C° 0 mm 6 m/s 756 mmHg 43%
19:00 +27°C° 0 mm 6 m/s 756 mmHg 46%
20:00 +24°C° 0 mm 7 m/s 757 mmHg 50%
21:00 +23°C° 0 mm 7 m/s 757 mmHg 53%
22:00 +23°C° 0 mm 7 m/s 757 mmHg 54%
23:00 +22°C° 0 mm 7 m/s 757 mmHg 54%

20 Maio, Quinta-feira

Tempo Temperatura Precipitação Vento Pressão Humidade
00:00 +21°C° 0 mm 7 m/s 757 mmHg 55%
01:00 +21°C° 0 mm 7 m/s 757 mmHg 56%
02:00 +20°C° 0 mm 7 m/s 757 mmHg 57%
03:00 +19°C° 0 mm 6 m/s 757 mmHg 59%
04:00 +19°C° 0 mm 6 m/s 757 mmHg 60%
05:00 +19°C° 0 mm 6 m/s 757 mmHg 61%
06:00 +20°C° 0 mm 6 m/s 758 mmHg 62%
07:00 +21°C° 0 mm 7 m/s 757 mmHg 58%
08:00 +22°C° 0 mm 7 m/s 757 mmHg 55%
09:00 +23°C° 0 mm 8 m/s 757 mmHg 51%
10:00 +24°C° 0 mm 8 m/s 757 mmHg 49%
11:00 +26°C° 0 mm 8 m/s 756 mmHg 48%
12:00 +27°C° 0 mm 8 m/s 756 mmHg 46%
13:00 +26°C° 0.2 mm 7 m/s 756 mmHg 51%
14:00 +24°C° 0.2 mm 6 m/s 756 mmHg 55%
15:00 +23°C° 0.2 mm 5 m/s 756 mmHg 60%
16:00 +21°C° 1 mm 5 m/s 756 mmHg 68%
17:00 +19°C° 1 mm 5 m/s 756 mmHg 76%
18:00 +17°C° 1 mm 5 m/s 756 mmHg 84%
19:00 +17°C° 0.8 mm 4 m/s 756 mmHg 87%
20:00 +17°C° 0.8 mm 3 m/s 756 mmHg 89%
21:00 +16°C° 0.8 mm 2 m/s 756 mmHg 92%
22:00 +16°C° 0.1 mm 2 m/s 756 mmHg 91%
23:00 +16°C° 0.1 mm 2 m/s 756 mmHg 90%

21 Maio, Sexta-feira

Tempo Temperatura Precipitação Vento Pressão Humidade
00:00 +16°C° 0.1 mm 2 m/s 756 mmHg 89%
01:00 +16°C° 0.1 mm 2 m/s 756 mmHg 89%
02:00 +16°C° 0.1 mm 2 m/s 756 mmHg 90%
03:00 +15°C° 0.1 mm 2 m/s 757 mmHg 91%
04:00 +16°C° 0 mm 2 m/s 757 mmHg 88%
05:00 +16°C° 0 mm 3 m/s 757 mmHg 85%
06:00 +17°C° 0 mm 3 m/s 758 mmHg 82%
07:00 +18°C° 0 mm 4 m/s 758 mmHg 76%
08:00 +19°C° 0 mm 4 m/s 758 mmHg 69%
09:00 +21°C° 0 mm 5 m/s 758 mmHg 63%
10:00 +21°C° 0 mm 5 m/s 759 mmHg 59%
11:00 +22°C° 0 mm 5 m/s 759 mmHg 55%
12:00 +23°C° 0 mm 5 m/s 759 mmHg 51%
13:00 +23°C° 0 mm 5 m/s 759 mmHg 49%
14:00 +25°C° 0 mm 5 m/s 759 mmHg 47%
15:00 +25°C° 0 mm 5 m/s 759 mmHg 45%
16:00 +23°C° 0 mm 5 m/s 759 mmHg 49%
17:00 +23°C° 0 mm 4 m/s 759 mmHg 52%
18:00 +22°C° 0 mm 3 m/s 759 mmHg 56%
19:00 +21°C° 0 mm 3 m/s 760 mmHg 58%
20:00 +20°C° 0 mm 3 m/s 760 mmHg 60%
21:00 +19°C° 0 mm 2 m/s 760 mmHg 62%
22:00 +19°C° 0 mm 3 m/s 760 mmHg 63%
23:00 +18°C° 0 mm 3 m/s 760 mmHg 64%

22 Maio, Sábado

Tempo Temperatura Precipitação Vento Pressão Humidade
00:00 +18°C° 0 mm 3 m/s 759 mmHg 65%
01:00 +18°C° 0 mm 3 m/s 759 mmHg 67%
02:00 +17°C° 0 mm 3 m/s 759 mmHg 68%
03:00 +17°C° 0 mm 3 m/s 760 mmHg 70%
04:00 +18°C° 0 mm 4 m/s 760 mmHg 68%
05:00 +19°C° 0 mm 4 m/s 760 mmHg 66%
06:00 +19°C° 0 mm 5 m/s 760 mmHg 64%
07:00 +21°C° 0 mm 5 m/s 760 mmHg 59%
08:00 +23°C° 0 mm 5 m/s 760 mmHg 54%
09:00 +25°C° 0 mm 5 m/s 760 mmHg 49%
10:00 +27°C° 0 mm 6 m/s 760 mmHg 45%
11:00 +28°C° 0 mm 6 m/s 760 mmHg 42%
12:00 +29°C° 0 mm 6 m/s 759 mmHg 38%
13:00 +30°C° 0 mm 7 m/s 759 mmHg 38%
14:00 +30°C° 0 mm 7 m/s 759 mmHg 37%
15:00 +32°C° 0 mm 7 m/s 758 mmHg 37%
16:00 +30°C° 0 mm 6 m/s 758 mmHg 41%
17:00 +29°C° 0 mm 6 m/s 758 mmHg 44%
18:00 +28°C° 0 mm 5 m/s 758 mmHg 48%
19:00 +27°C° 0 mm 5 m/s 758 mmHg 49%
20:00 +26°C° 0 mm 6 m/s 757 mmHg 51%
21:00 +24°C° 0 mm 6 m/s 757 mmHg 53%
22:00 +23°C° 0 mm 5 m/s 757 mmHg 53%
23:00 +22°C° 0 mm 5 m/s 758 mmHg 53%
Mostrar mais

Necessitamos do seu Consentimento

A Meteoprog e os seus Fornecedores de Serviços podem armazenar e aceder a dados pessoais como cookies, identificadores do dispositivo ou outras tecnologias semelhantes existentes no seu dispositivo e processar estes dados para personalizar conteúdos e anúncios, assim como funcionalidades nas redes sociais e análise de tráfego.

  • Armazenar e/ou aceder a informações no seu dispositivo

    Os cookies, identificadores do dispositivo ou outras informações podem ser armazenados ou acedidos no seu dispositivo, para os fins acima indicados.

  • Anúncios e conteúdos personalizados, medição de anúncios e conteúdos, dados sobre o público-alvo e desenvolvimento de produtos

    Os anúncios e os conteúdos podem ser personalizados com base num perfil. Podem ser adicionados dados adicionais para uma maior personalização dos anúncios e dos conteúdos. A eficácia dos anúncios e dos conteúdos pode ser medida. Podem ser obtidas informações sobre o público que visualizou os anúncios e os conteúdos. Estes dados podem ser usados para desenvolver ou melhorar sistemas, softwares ou a experiência do utilizador.

Ao clicar em "Eu concordo”, permitirá o uso de cookies, identificadores do dispositivo e web beacons mencionados ou outras tecnologias semelhantes. As configurações do navegador do seu dispositivo podem ser alteradas.

Para certos fins, podem ser invocados interesses legítimos ao invés de consentimento. Pode ler mais informação sobre este assunto na nossa Política de Privacidade e Cookies.